Time,TemperatureF,DewpointF,PressureIn,WindDirection,WindDirectionDegrees,WindSpeedMPH,WindSpeedGustMPH,Humidity,HourlyPrecipIn,Conditions,Clouds,dailyrainin,SoftwareType,DateUTC
2013-02-25 00:00:00,26.4,18.6,29.89,WSW,248,2.5,4.0,72,0.00,,,0.00,WUHU216HW,2013-02-25 05:00:00,
2013-02-25 00:02:00,26.4,18.6,29.89,WSW,248,3.1,4.7,72,0.00,,,0.00,WUHU216HW,2013-02-25 05:02:00,
2013-02-25 00:07:00,26.4,18.6,29.89,WSW,248,3.4,4.7,72,0.00,,,0.00,WUHU216HW,2013-02-25 05:07:00,
2013-02-25 00:12:00,26.4,18.6,29.89,WSW,248,2.9,4.7,72,0.00,,,0.00,WUHU216HW,2013-02-25 05:12:00,
2013-02-25 00:17:00,26.4,18.6,29.90,WSW,248,2.5,3.6,72,0.00,,,0.00,WUHU216HW,2013-02-25 05:17:00,
2013-02-25 00:22:00,26.4,18.6,29.90,WSW,248,2.2,4.7,72,0.00,,,0.00,WUHU216HW,2013-02-25 05:22:00,
2013-02-25 00:27:00,26.4,18.6,29.90,WSW,248,1.1,4.7,72,0.00,,,0.00,WUHU216HW,2013-02-25 05:27:00,
2013-02-25 00:32:00,26.4,18.6,29.91,WSW,248,2.9,4.7,72,0.00,,,0.00,WUHU216HW,2013-02-25 05:32:00,
2013-02-25 00:38:00,26.4,18.6,29.91,WSW,248,2.0,7.4,72,0.00,,,0.00,WUHU216HW,2013-02-25 05:38:00,
2013-02-25 00:42:00,26.4,18.6,29.91,WSW,248,1.8,7.4,72,0.00,,,0.00,WUHU216HW,2013-02-25 05:42:00,
2013-02-25 00:48:00,26.4,19.0,29.91,WSW,248,1.3,8.5,73,0.00,,,0.00,WUHU216HW,2013-02-25 05:48:00,
2013-02-25 00:53:00,26.6,19.2,29.91,WSW,248,3.1,8.5,73,0.00,,,0.00,WUHU216HW,2013-02-25 05:53:00,
2013-02-25 00:58:00,26.8,19.0,29.92,WSW,248,1.8,5.8,72,0.00,,,0.00,WUHU216HW,2013-02-25 05:58:00,
2013-02-25 01:03:00,26.8,19.0,29.92,WSW,248,3.6,5.6,72,0.00,,,0.00,WUHU216HW,2013-02-25 06:03:00,
2013-02-25 01:08:00,26.6,18.8,29.92,WSW,248,4.5,5.6,72,0.00,,,0.00,WUHU216HW,2013-02-25 06:08:00,
2013-02-25 01:13:00,26.6,19.2,29.92,WSW,248,3.6,5.4,73,0.00,,,0.00,WUHU216HW,2013-02-25 06:13:00,
2013-02-25 01:18:00,26.6,19.2,29.92,WSW,248,2.5,5.6,73,0.00,,,0.00,WUHU216HW,2013-02-25 06:18:00,
2013-02-25 01:23:00,26.6,19.2,29.92,WSW,248,3.8,5.6,73,0.00,,,0.00,WUHU216HW,2013-02-25 06:23:00,
2013-02-25 01:28:00,26.6,19.2,29.92,WSW,248,2.5,4.7,73,0.00,,,0.00,WUHU216HW,2013-02-25 06:28:00,
2013-02-25 01:33:00,26.6,19.2,29.92,WSW,248,2.5,4.7,73,0.00,,,0.00,WUHU216HW,2013-02-25 06:33:00,
2013-02-25 01:39:00,26.8,19.3,29.92,WSW,248,2.5,6.0,73,0.00,,,0.00,WUHU216HW,2013-02-25 06:39:00,
2013-02-25 01:44:00,26.8,19.3,29.93,WSW,248,2.5,6.0,73,0.00,,,0.00,WUHU216HW,2013-02-25 06:44:00,
2013-02-25 01:49:00,26.8,19.3,29.92,WSW,248,3.1,6.7,73,0.00,,,0.00,WUHU216HW,2013-02-25 06:49:00,
2013-02-25 01:54:00,26.8,19.3,29.93,WSW,248,3.4,6.7,73,0.00,,,0.00,WUHU216HW,2013-02-25 06:54:00,
2013-02-25 01:59:00,27.0,19.5,29.92,WSW,248,1.6,7.4,73,0.00,,,0.00,WUHU216HW,2013-02-25 06:59:00,
2013-02-25 02:04:00,27.0,19.5,29.93,WSW,248,2.9,7.4,73,0.00,,,0.00,WUHU216HW,2013-02-25 07:04:00,
2013-02-25 02:09:00,26.8,19.3,29.93,WSW,248,2.5,4.7,73,0.00,,,0.00,WUHU216HW,2013-02-25 07:09:00,
2013-02-25 02:14:00,26.8,19.3,29.92,WSW,248,2.7,3.4,73,0.00,,,0.00,WUHU216HW,2013-02-25 07:14:00,
2013-02-25 02:19:00,26.6,19.2,29.92,WSW,248,2.5,4.5,73,0.00,,,0.00,WUHU216HW,2013-02-25 07:19:00,
2013-02-25 02:25:00,26.6,19.5,29.92,WSW,248,3.8,4.5,74,0.00,,,0.00,WUHU216HW,2013-02-25 07:25:00,
2013-02-25 02:30:00,26.6,19.5,29.92,WSW,248,2.5,3.8,74,0.00,,,0.00,WUHU216HW,2013-02-25 07:30:00,
2013-02-25 02:35:00,26.4,19.3,29.92,WSW,248,1.3,4.3,74,0.00,,,0.00,WUHU216HW,2013-02-25 07:35:00,
2013-02-25 02:40:00,26.4,19.3,29.92,WSW,248,3.4,4.3,74,0.00,,,0.00,WUHU216HW,2013-02-25 07:40:00,
2013-02-25 02:45:00,26.3,19.2,29.92,WSW,248,1.3,3.4,74,0.00,,,0.00,WUHU216HW,2013-02-25 07:45:00,
2013-02-25 02:50:00,26.3,19.2,29.93,WSW,248,2.5,4.3,74,0.00,,,0.00,WUHU216HW,2013-02-25 07:50:00,
2013-02-25 02:55:00,26.3,19.2,29.93,WSW,248,2.0,4.9,74,0.00,,,0.00,WUHU216HW,2013-02-25 07:55:00,
2013-02-25 03:00:00,26.3,19.2,29.93,WSW,248,1.1,4.9,74,0.00,,,0.00,WUHU216HW,2013-02-25 08:00:00,
2013-02-25 03:05:00,26.3,19.2,29.93,WSW,248,1.8,3.4,74,0.00,,,0.00,WUHU216HW,2013-02-25 08:05:00,
2013-02-25 03:10:00,26.1,19.3,29.94,WSW,248,1.8,4.0,75,0.00,,,0.00,WUHU216HW,2013-02-25 08:10:00,
2013-02-25 03:16:00,26.1,19.3,29.94,WSW,248,2.7,4.0,75,0.00,,,0.00,WUHU216HW,2013-02-25 08:16:00,
2013-02-25 03:21:00,26.1,19.3,29.94,WSW,248,4.0,4.3,75,0.00,,,0.00,WUHU216HW,2013-02-25 08:21:00,
2013-02-25 03:26:00,26.1,19.3,29.94,WSW,248,4.0,4.7,75,0.00,,,0.00,WUHU216HW,2013-02-25 08:26:00,
2013-02-25 03:31:00,26.1,19.3,29.94,WSW,248,3.6,4.7,75,0.00,,,0.00,WUHU216HW,2013-02-25 08:31:00,
2013-02-25 03:36:00,26.1,19.6,29.94,WSW,248,4.7,4.9,76,0.00,,,0.00,WUHU216HW,2013-02-25 08:36:00,
2013-02-25 03:41:00,26.1,19.6,29.94,WSW,248,3.4,4.9,76,0.00,,,0.00,WUHU216HW,2013-02-25 08:41:00,
2013-02-25 03:46:00,26.1,19.6,29.94,WSW,248,3.1,4.7,76,0.00,,,0.00,WUHU216HW,2013-02-25 08:46:00,
2013-02-25 03:51:00,26.3,19.8,29.94,WSW,248,1.8,4.5,76,0.00,,,0.00,WUHU216HW,2013-02-25 08:51:00,
2013-02-25 03:56:00,26.3,19.8,29.94,WSW,248,1.8,4.5,76,0.00,,,0.00,WUHU216HW,2013-02-25 08:56:00,
2013-02-25 04:01:00,26.4,19.9,29.94,WSW,248,1.8,3.4,76,0.00,,,0.00,WUHU216HW,2013-02-25 09:01:00,
2013-02-25 04:06:00,26.4,19.6,29.94,WSW,248,3.6,3.6,75,0.00,,,0.00,WUHU216HW,2013-02-25 09:06:00,
2013-02-25 04:11:00,26.4,19.6,29.94,WSW,248,2.9,3.6,75,0.00,,,0.00,WUHU216HW,2013-02-25 09:11:00,
2013-02-25 04:16:00,26.4,19.6,29.95,WSW,248,2.5,3.6,75,0.00,,,0.00,WUHU216HW,2013-02-25 09:16:00,
2013-02-25 04:22:00,26.4,19.6,29.94,WSW,248,1.1,3.6,75,0.00,,,0.00,WUHU216HW,2013-02-25 09:22:00,
2013-02-25 04:27:00,26.6,19.8,29.95,WSW,248,3.6,3.6,75,0.00,,,0.00,WUHU216HW,2013-02-25 09:27:00,
2013-02-25 04:32:00,26.6,19.8,29.95,WSW,248,2.2,3.6,75,0.00,,,0.00,WUHU216HW,2013-02-25 09:32:00,
2013-02-25 04:37:00,26.8,20.0,29.95,WSW,248,2.5,3.6,75,0.00,,,0.00,WUHU216HW,2013-02-25 09:37:00,
2013-02-25 04:42:00,26.8,20.0,29.95,WSW,248,2.5,3.4,75,0.00,,,0.00,WUHU216HW,2013-02-25 09:42:00,
2013-02-25 04:47:00,26.8,20.0,29.95,WSW,248,2.0,3.4,75,0.00,,,0.00,WUHU216HW,2013-02-25 09:47:00,
2013-02-25 04:52:00,26.8,20.0,29.95,WSW,248,1.1,3.4,75,0.00,,,0.00,WUHU216HW,2013-02-25 09:52:00,
2013-02-25 04:57:00,26.8,20.0,29.96,WSW,248,0.2,2.9,75,0.00,,,0.00,WUHU216HW,2013-02-25 09:57:00,
2013-02-25 05:02:00,26.8,20.0,29.95,WSW,248,1.1,1.6,75,0.00,,,0.00,WUHU216HW,2013-02-25 10:02:00,
2013-02-25 05:07:00,27.0,20.2,29.96,WSW,248,0.7,1.6,75,0.00,,,0.00,WUHU216HW,2013-02-25 10:07:00,
2013-02-25 05:12:00,27.0,20.2,29.96,WSW,248,1.1,2.5,75,0.00,,,0.00,WUHU216HW,2013-02-25 10:12:00,
2013-02-25 05:17:00,27.0,20.2,29.96,WSW,248,1.3,4.5,75,0.00,,,0.00,WUHU216HW,2013-02-25 10:17:00,
2013-02-25 05:22:00,27.0,20.2,29.96,WSW,248,2.9,4.5,75,0.00,,,0.00,WUHU216HW,2013-02-25 10:22:00,
2013-02-25 05:27:00,27.0,20.2,29.97,WSW,248,1.1,4.0,75,0.00,,,0.00,WUHU216HW,2013-02-25 10:27:00,
2013-02-25 05:32:00,27.2,20.4,29.97,WSW,248,1.3,2.9,75,0.00,,,0.00,WUHU216HW,2013-02-25 10:32:00,
2013-02-25 05:38:00,27.2,20.4,29.97,WSW,248,3.1,3.1,75,0.00,,,0.00,WUHU216HW,2013-02-25 10:38:00,
2013-02-25 05:43:00,27.2,20.7,29.97,WSW,248,1.1,3.1,76,0.00,,,0.00,WUHU216HW,2013-02-25 10:43:00,
2013-02-25 05:48:00,27.2,20.7,29.97,WSW,248,1.8,2.9,76,0.00,,,0.00,WUHU216HW,2013-02-25 10:48:00,
2013-02-25 05:53:00,27.2,20.7,29.97,WSW,248,2.0,2.5,76,0.00,,,0.00,WUHU216HW,2013-02-25 10:53:00,
2013-02-25 05:58:00,27.3,20.8,29.97,WSW,248,1.8,2.5,76,0.00,,,0.00,WUHU216HW,2013-02-25 10:58:00,
2013-02-25 06:03:00,27.3,20.8,29.97,WSW,248,1.1,2.5,76,0.00,,,0.00,WUHU216HW,2013-02-25 11:03:00,
2013-02-25 06:08:00,27.3,20.8,29.98,WSW,248,1.1,2.5,76,0.00,,,0.00,WUHU216HW,2013-02-25 11:08:00,
2013-02-25 06:13:00,27.3,20.8,29.98,WSW,248,1.6,1.8,76,0.00,,,0.00,WUHU216HW,2013-02-25 11:13:00,
2013-02-25 06:18:00,27.2,20.7,29.98,WSW,248,1.1,1.8,76,0.00,,,0.00,WUHU216HW,2013-02-25 11:18:00,
2013-02-25 06:23:00,27.3,20.8,29.98,WSW,248,1.6,1.8,76,0.00,,,0.00,WUHU216HW,2013-02-25 11:23:00,
2013-02-25 06:28:00,27.3,20.8,29.98,WSW,248,1.1,3.1,76,0.00,,,0.00,WUHU216HW,2013-02-25 11:28:00,
2013-02-25 06:34:00,27.3,20.8,29.98,WSW,248,1.8,3.1,76,0.00,,,0.00,WUHU216HW,2013-02-25 11:34:00,
2013-02-25 06:39:00,27.3,20.8,29.98,WSW,248,0.7,3.4,76,0.00,,,0.00,WUHU216HW,2013-02-25 11:39:00,
2013-02-25 06:44:00,27.3,20.8,29.98,WSW,248,2.2,3.4,76,0.00,,,0.00,WUHU216HW,2013-02-25 11:44:00,
2013-02-25 06:49:00,27.3,20.8,29.99,WSW,248,1.6,2.2,76,0.00,,,0.00,WUHU216HW,2013-02-25 11:49:00,
2013-02-25 06:54:00,27.3,20.8,29.98,WSW,248,2.9,4.0,76,0.00,,,0.00,WUHU216HW,2013-02-25 11:54:00,
2013-02-25 06:59:00,27.5,21.0,29.99,WSW,248,1.8,4.0,76,0.00,,,0.00,WUHU216HW,2013-02-25 11:59:00,
2013-02-25 07:04:00,27.3,21.1,29.99,WSW,248,1.8,3.8,77,0.00,,,0.00,WUHU216HW,2013-02-25 12:04:00,
2013-02-25 07:09:00,27.5,21.3,30.00,WSW,248,2.5,3.8,77,0.00,,,0.00,WUHU216HW,2013-02-25 12:09:00,
2013-02-25 07:15:00,27.5,21.3,30.00,WSW,248,1.8,4.3,77,0.00,,,0.00,WUHU216HW,2013-02-25 12:15:00,
2013-02-25 07:20:00,27.7,21.5,30.00,WSW,248,2.2,4.3,77,0.00,,,0.00,WUHU216HW,2013-02-25 12:20:00,
2013-02-25 07:25:00,27.9,21.6,30.01,WSW,248,1.1,5.8,77,0.00,,,0.00,WUHU216HW,2013-02-25 12:25:00,
2013-02-25 07:30:00,28.1,22.1,30.01,WSW,248,3.1,5.8,78,0.00,,,0.00,WUHU216HW,2013-02-25 12:30:00,
2013-02-25 07:35:00,28.2,22.2,30.00,WSW,248,3.4,3.8,78,0.00,,,0.00,WUHU216HW,2013-02-25 12:35:00,
2013-02-25 07:40:00,28.2,22.2,30.01,WSW,248,3.6,4.3,78,0.00,,,0.00,WUHU216HW,2013-02-25 12:40:00,
2013-02-25 07:45:00,28.2,22.2,30.00,WSW,248,3.4,4.7,78,0.00,,,0.00,WUHU216HW,2013-02-25 12:45:00,
2013-02-25 07:50:00,28.4,22.4,30.00,WSW,248,0.7,4.7,78,0.00,,,0.00,WUHU216HW,2013-02-25 12:50:00,
2013-02-25 07:55:00,28.4,22.4,30.01,WSW,248,4.0,4.0,78,0.00,,,0.00,WUHU216HW,2013-02-25 12:55:00,
2013-02-25 08:00:00,28.6,22.6,30.02,WSW,248,1.6,4.0,78,0.00,,,0.00,WUHU216HW,2013-02-25 13:00:00,
2013-02-25 08:06:00,28.6,22.6,30.02,WSW,248,4.5,5.6,78,0.00,,,0.00,WUHU216HW,2013-02-25 13:06:00,
2013-02-25 08:11:00,28.8,22.8,30.02,WSW,248,3.8,5.6,78,0.00,,,0.00,WUHU216HW,2013-02-25 13:11:00,
2013-02-25 08:16:00,29.0,23.0,30.02,WSW,248,2.7,5.1,78,0.00,,,0.00,WUHU216HW,2013-02-25 13:16:00,
2013-02-25 08:21:00,29.1,23.1,30.02,NW,315,2.2,6.3,78,0.00,,,0.00,WUHU216HW,2013-02-25 13:21:00,
2013-02-25 08:26:00,29.1,23.1,30.02,West,270,3.8,6.3,78,0.00,,,0.00,WUHU216HW,2013-02-25 13:26:00,
2013-02-25 08:31:00,29.3,23.3,30.02,NNW,338,4.7,5.4,78,0.00,,,0.00,WUHU216HW,2013-02-25 13:31:00,
2013-02-25 08:36:00,29.3,23.3,30.02,WNW,293,1.8,5.4,78,0.00,,,0.00,WUHU216HW,2013-02-25 13:36:00,
2013-02-25 08:41:00,29.7,23.7,30.02,WNW,293,2.2,5.1,78,0.00,,,0.00,WUHU216HW,2013-02-25 13:41:00,
2013-02-25 08:46:00,29.9,23.9,30.02,WNW,293,1.8,3.4,78,0.00,,,0.00,WUHU216HW,2013-02-25 13:46:00,
2013-02-25 08:52:00,30.0,24.0,30.02,WNW,293,3.4,5.1,78,0.00,,,0.00,WUHU216HW,2013-02-25 13:52:00,
2013-02-25 08:57:00,30.0,24.0,30.02,WNW,293,3.1,5.1,78,0.00,,,0.00,WUHU216HW,2013-02-25 13:57:00,
2013-02-25 09:02:00,30.0,24.0,30.02,West,270,4.0,5.4,78,0.00,,,0.00,WUHU216HW,2013-02-25 14:02:00,
2013-02-25 09:07:00,30.4,24.4,30.02,West,270,4.7,5.8,78,0.00,,,0.00,WUHU216HW,2013-02-25 14:07:00,
2013-02-25 09:12:00,30.6,24.6,30.02,WNW,293,3.4,5.8,78,0.00,,,0.00,WUHU216HW,2013-02-25 14:12:00,
2013-02-25 09:17:00,30.6,24.6,30.02,NW,315,2.0,5.4,78,0.00,,,0.00,WUHU216HW,2013-02-25 14:17:00,
2013-02-25 09:23:00,30.8,24.8,30.03,WNW,293,3.4,5.4,78,0.00,,,0.00,WUHU216HW,2013-02-25 14:23:00,
2013-02-25 09:28:00,30.8,24.8,30.03,West,270,5.1,5.4,78,0.00,,,0.00,WUHU216HW,2013-02-25 14:28:00,
2013-02-25 09:33:00,30.8,24.8,30.03,WNW,293,5.1,5.4,78,0.00,,,0.00,WUHU216HW,2013-02-25 14:33:00,
2013-02-25 09:38:00,30.8,24.5,30.03,NNW,338,2.2,5.1,77,0.00,,,0.00,WUHU216HW,2013-02-25 14:38:00,
2013-02-25 09:43:00,30.9,24.6,30.03,WSW,248,5.1,5.1,77,0.00,,,0.00,WUHU216HW,2013-02-25 14:43:00,
2013-02-25 09:48:00,31.1,24.8,30.03,WNW,293,2.0,5.1,77,0.00,,,0.00,WUHU216HW,2013-02-25 14:48:00,
2013-02-25 09:53:00,31.5,25.1,30.03,WNW,293,4.0,7.2,77,0.00,,,0.00,WUHU216HW,2013-02-25 14:53:00,
2013-02-25 09:58:00,31.7,25.3,30.03,WNW,293,2.5,7.2,77,0.00,,,0.00,WUHU216HW,2013-02-25 14:58:00,
2013-02-25 10:03:00,31.8,25.4,30.03,NW,315,1.1,4.0,77,0.00,,,0.00,WUHU216HW,2013-02-25 15:03:00,
2013-02-25 10:08:00,32.2,25.5,30.03,West,270,1.3,4.7,76,0.00,,,0.00,WUHU216HW,2013-02-25 15:08:00,
2013-02-25 10:13:00,32.0,25.3,30.03,WNW,293,3.8,4.7,76,0.00,,,0.00,WUHU216HW,2013-02-25 15:13:00,
2013-02-25 10:18:00,32.0,25.3,30.03,WNW,293,3.1,4.7,76,0.00,,,0.00,WUHU216HW,2013-02-25 15:18:00,
2013-02-25 10:23:00,32.2,25.5,30.04,NW,315,3.6,5.4,76,0.00,,,0.00,WUHU216HW,2013-02-25 15:23:00,
2013-02-25 10:28:00,32.2,25.5,30.04,WNW,293,3.4,5.4,76,0.00,,,0.00,WUHU216HW,2013-02-25 15:28:00,
2013-02-25 10:33:00,32.4,25.7,30.04,WNW,293,1.8,4.9,76,0.00,,,0.00,WUHU216HW,2013-02-25 15:33:00,
2013-02-25 10:38:00,32.6,25.9,30.04,NW,315,2.7,6.3,76,0.00,,,0.00,WUHU216HW,2013-02-25 15:38:00,
2013-02-25 10:44:00,32.6,25.9,30.04,SSW,203,2.9,6.3,76,0.00,,,0.00,WUHU216HW,2013-02-25 15:44:00,
2013-02-25 10:48:00,32.9,26.2,30.04,WNW,293,3.4,6.5,76,0.00,,,0.00,WUHU216HW,2013-02-25 15:48:00,
2013-02-25 10:53:00,32.9,26.2,30.04,NW,315,2.5,6.5,76,0.00,,,0.00,WUHU216HW,2013-02-25 15:53:00,
2013-02-25 10:58:00,33.1,26.1,30.04,West,270,0.7,4.7,75,0.00,,,0.00,WUHU216HW,2013-02-25 15:58:00,
2013-02-25 11:03:00,33.3,26.3,30.04,NW,315,2.2,5.1,75,0.00,,,0.00,WUHU216HW,2013-02-25 16:03:00,
2013-02-25 11:09:00,33.6,26.6,30.05,NNW,338,3.8,5.8,75,0.00,,,0.00,WUHU216HW,2013-02-25 16:09:00,
2013-02-25 11:14:00,33.6,26.6,30.05,West,270,2.7,5.8,75,0.00,,,0.00,WUHU216HW,2013-02-25 16:14:00,
2013-02-25 11:19:00,34.2,26.8,30.05,WNW,293,2.5,4.7,74,0.00,,,0.00,WUHU216HW,2013-02-25 16:19:00,
2013-02-25 11:24:00,34.4,27.0,30.05,WNW,293,2.2,4.7,74,0.00,,,0.00,WUHU216HW,2013-02-25 16:24:00,
2013-02-25 11:29:00,34.4,27.0,30.05,WNW,293,4.0,6.3,74,0.00,,,0.00,WUHU216HW,2013-02-25 16:29:00,
2013-02-25 11:34:00,34.5,27.1,30.05,NNW,338,0.9,6.3,74,0.00,,,0.00,WUHU216HW,2013-02-25 16:34:00,
2013-02-25 11:39:00,34.7,27.3,30.05,WNW,293,2.7,5.1,74,0.00,,,0.00,WUHU216HW,2013-02-25 16:39:00,
2013-02-25 11:44:00,34.9,27.5,30.05,NNW,338,1.8,5.1,74,0.00,,,0.00,WUHU216HW,2013-02-25 16:44:00,
2013-02-25 11:49:00,35.1,27.7,30.05,WNW,293,3.1,5.6,74,0.00,,,0.00,WUHU216HW,2013-02-25 16:49:00,
2013-02-25 11:54:00,35.1,27.4,30.05,North,0,0.7,5.6,73,0.00,,,0.00,WUHU216HW,2013-02-25 16:54:00,
2013-02-25 11:59:00,35.3,27.6,30.05,NW,315,2.2,3.8,73,0.00,,,0.00,WUHU216HW,2013-02-25 16:59:00,
2013-02-25 12:04:00,35.3,27.6,30.05,WNW,293,1.6,3.4,73,0.00,,,0.00,WUHU216HW,2013-02-25 17:04:00,
2013-02-25 12:09:00,35.4,27.7,30.06,NNW,338,1.8,4.0,73,0.00,,,0.00,WUHU216HW,2013-02-25 17:09:00,
2013-02-25 12:15:00,35.3,27.2,30.05,NW,315,4.3,4.3,72,0.00,,,0.00,WUHU216HW,2013-02-25 17:15:00,
2013-02-25 12:20:00,35.3,27.2,30.05,NW,315,2.2,4.3,72,0.00,,,0.00,WUHU216HW,2013-02-25 17:20:00,
2013-02-25 12:25:00,35.3,26.9,30.05,NW,315,2.0,4.9,71,0.00,,,0.00,WUHU216HW,2013-02-25 17:25:00,
2013-02-25 12:30:00,35.3,26.9,30.05,WNW,293,3.1,4.9,71,0.00,,,0.00,WUHU216HW,2013-02-25 17:30:00,
2013-02-25 12:35:00,35.4,27.0,30.05,WNW,293,2.5,4.3,71,0.00,,,0.00,WUHU216HW,2013-02-25 17:35:00,
2013-02-25 12:40:00,35.4,27.0,30.05,West,270,4.5,4.9,71,0.00,,,0.00,WUHU216HW,2013-02-25 17:40:00,
2013-02-25 12:45:00,35.4,27.0,30.05,NW,315,3.4,4.9,71,0.00,,,0.00,WUHU216HW,2013-02-25 17:45:00,
2013-02-25 12:50:00,35.6,27.2,30.06,NNW,338,2.0,4.5,71,0.00,,,0.00,WUHU216HW,2013-02-25 17:50:00,
2013-02-25 12:55:00,35.8,27.4,30.05,WNW,293,1.6,3.4,71,0.00,,,0.00,WUHU216HW,2013-02-25 17:55:00,
2013-02-25 13:00:00,35.6,27.2,30.05,WSW,248,4.3,4.3,71,0.00,,,0.00,WUHU216HW,2013-02-25 18:00:00,
2013-02-25 13:05:00,35.6,27.2,30.05,NNE,23,6.7,6.7,71,0.00,,,0.00,WUHU216HW,2013-02-25 18:05:00,
2013-02-25 13:10:00,35.6,26.8,30.05,WNW,293,1.1,6.7,70,0.00,,,0.00,WUHU216HW,2013-02-25 18:10:00,
2013-02-25 13:15:00,35.8,27.0,30.05,West,270,0.9,6.7,70,0.00,,,0.00,WUHU216HW,2013-02-25 18:15:00,
2013-02-25 13:20:00,36.0,27.2,30.05,NW,315,2.7,5.1,70,0.00,,,0.00,WUHU216HW,2013-02-25 18:20:00,
2013-02-25 13:25:00,36.0,27.2,30.04,South,180,1.6,5.1,70,0.00,,,0.00,WUHU216HW,2013-02-25 18:25:00,
2013-02-25 13:30:00,36.0,26.9,30.04,NW,315,2.5,5.1,69,0.00,,,0.00,WUHU216HW,2013-02-25 18:30:00,
2013-02-25 13:35:00,36.2,27.1,30.04,West,270,2.2,4.7,69,0.00,,,0.00,WUHU216HW,2013-02-25 18:35:00,
2013-02-25 13:40:00,36.3,27.5,30.05,West,270,3.8,4.5,70,0.00,,,0.00,WUHU216HW,2013-02-25 18:40:00,
2013-02-25 13:45:00,36.5,27.4,30.05,West,270,2.7,4.9,69,0.00,,,0.00,WUHU216HW,2013-02-25 18:45:00,
2013-02-25 13:50:00,36.5,27.4,30.05,WNW,293,1.1,5.1,69,0.00,,,0.00,WUHU216HW,2013-02-25 18:50:00,
2013-02-25 13:55:00,36.5,27.4,30.05,West,270,1.8,5.1,69,0.00,,,0.00,WUHU216HW,2013-02-25 18:55:00,
2013-02-25 14:01:00,36.5,27.0,30.05,NW,315,3.6,4.0,68,0.00,,,0.00,WUHU216HW,2013-02-25 19:01:00,
2013-02-25 14:06:00,36.9,27.4,30.05,NNW,338,1.1,5.4,68,0.00,,,0.00,WUHU216HW,2013-02-25 19:06:00,
2013-02-25 14:11:00,36.9,27.4,30.05,NNW,338,1.3,5.4,68,0.00,,,0.00,WUHU216HW,2013-02-25 19:11:00,
2013-02-25 14:16:00,36.9,27.4,30.05,NNW,338,1.8,6.5,68,0.00,,,0.00,WUHU216HW,2013-02-25 19:16:00,
2013-02-25 14:21:00,36.9,27.0,30.05,NNW,338,0.9,6.5,67,0.00,,,0.00,WUHU216HW,2013-02-25 19:21:00,
2013-02-25 14:26:00,36.9,27.4,30.05,West,270,3.4,4.9,68,0.00,,,0.00,WUHU216HW,2013-02-25 19:26:00,
2013-02-25 14:31:00,36.7,26.8,30.05,NW,315,2.5,6.3,67,0.00,,,0.00,WUHU216HW,2013-02-25 19:31:00,
2013-02-25 14:36:00,36.9,27.0,30.06,WNW,293,3.1,6.3,67,0.00,,,0.00,WUHU216HW,2013-02-25 19:36:00,
2013-02-25 14:41:00,36.7,26.8,30.06,North,0,2.5,6.3,67,0.00,,,0.00,WUHU216HW,2013-02-25 19:41:00,
2013-02-25 14:46:00,36.7,26.8,30.06,WNW,293,1.8,6.3,67,0.00,,,0.00,WUHU216HW,2013-02-25 19:46:00,
2013-02-25 14:51:00,36.7,26.8,30.06,NW,315,1.3,4.5,67,0.00,,,0.00,WUHU216HW,2013-02-25 19:51:00,
2013-02-25 14:56:00,36.7,26.8,30.06,WNW,293,3.4,4.9,67,0.00,,,0.00,WUHU216HW,2013-02-25 19:56:00,
2013-02-25 15:01:00,36.7,26.8,30.07,NW,315,1.8,6.3,67,0.00,,,0.00,WUHU216HW,2013-02-25 20:01:00,
2013-02-25 15:06:00,36.7,26.8,30.06,West,270,1.6,6.3,67,0.00,,,0.00,WUHU216HW,2013-02-25 20:06:00,
2013-02-25 15:11:00,36.7,26.8,30.06,WNW,293,2.5,4.0,67,0.00,,,0.00,WUHU216HW,2013-02-25 20:11:00,
2013-02-25 15:16:00,36.5,26.7,30.06,NW,315,2.5,4.3,67,0.00,,,0.00,WUHU216HW,2013-02-25 20:16:00,
2013-02-25 15:21:00,36.5,26.7,30.06,WSW,248,4.7,4.7,67,0.00,,,0.00,WUHU216HW,2013-02-25 20:21:00,
2013-02-25 15:26:00,36.3,26.5,30.06,NNW,338,2.9,4.7,67,0.00,,,0.00,WUHU216HW,2013-02-25 20:26:00,
2013-02-25 15:31:00,36.3,26.5,30.06,WNW,293,1.1,5.1,67,0.00,,,0.00,WUHU216HW,2013-02-25 20:31:00,
2013-02-25 15:36:00,36.2,26.4,30.06,North,0,3.1,5.1,67,0.00,,,0.00,WUHU216HW,2013-02-25 20:36:00,
2013-02-25 15:41:00,36.2,26.4,30.06,WNW,293,2.0,4.0,67,0.00,,,0.00,WUHU216HW,2013-02-25 20:41:00,
2013-02-25 15:46:00,36.2,26.4,30.07,NNW,338,2.2,4.9,67,0.00,,,0.00,WUHU216HW,2013-02-25 20:46:00,
2013-02-25 15:51:00,36.2,26.4,30.07,WNW,293,1.8,4.9,67,0.00,,,0.00,WUHU216HW,2013-02-25 20:51:00,
2013-02-25 15:56:00,36.2,26.4,30.07,WSW,248,2.5,4.0,67,0.00,,,0.00,WUHU216HW,2013-02-25 20:56:00,
2013-02-25 16:01:00,36.2,26.4,30.07,West,270,2.2,5.8,67,0.00,,,0.00,WUHU216HW,2013-02-25 21:01:00,
2013-02-25 16:06:00,36.2,26.4,30.07,NNW,338,0.7,5.8,67,0.00,,,0.00,WUHU216HW,2013-02-25 21:06:00,
2013-02-25 16:11:00,36.2,26.4,30.07,West,270,2.9,3.1,67,0.00,,,0.00,WUHU216HW,2013-02-25 21:11:00,
2013-02-25 16:16:00,36.2,26.4,30.07,WNW,293,1.8,3.4,67,0.00,,,0.00,WUHU216HW,2013-02-25 21:16:00,
2013-02-25 16:21:00,36.0,26.2,30.06,SW,225,1.1,3.4,67,0.00,,,0.00,WUHU216HW,2013-02-25 21:21:00,
2013-02-25 16:27:00,36.2,26.4,30.06,WNW,293,1.3,1.8,67,0.00,,,0.00,WUHU216HW,2013-02-25 21:27:00,
2013-02-25 16:32:00,36.2,26.4,30.06,WNW,293,1.1,4.0,67,0.00,,,0.00,WUHU216HW,2013-02-25 21:32:00,
2013-02-25 16:37:00,36.0,26.2,30.06,NW,315,1.8,4.3,67,0.00,,,0.00,WUHU216HW,2013-02-25 21:37:00,
2013-02-25 16:42:00,36.0,26.2,30.06,NW,315,2.2,4.3,67,0.00,,,0.00,WUHU216HW,2013-02-25 21:42:00,
2013-02-25 16:47:00,36.0,26.2,30.07,NW,315,1.8,4.0,67,0.00,,,0.00,WUHU216HW,2013-02-25 21:47:00,
2013-02-25 16:52:00,36.0,26.2,30.07,NW,315,1.3,4.0,67,0.00,,,0.00,WUHU216HW,2013-02-25 21:52:00,
2013-02-25 16:57:00,35.8,26.0,30.07,WNW,293,0.4,3.1,67,0.00,,,0.00,WUHU216HW,2013-02-25 21:57:00,
2013-02-25 17:02:00,35.8,26.0,30.07,WNW,293,1.8,2.0,67,0.00,,,0.00,WUHU216HW,2013-02-25 22:02:00,
2013-02-25 17:07:00,35.8,26.0,30.07,NW,315,2.2,2.2,67,0.00,,,0.00,WUHU216HW,2013-02-25 22:07:00,
2013-02-25 17:12:00,35.8,26.0,30.07,WNW,293,1.8,4.7,67,0.00,,,0.00,WUHU216HW,2013-02-25 22:12:00,
2013-02-25 17:17:00,35.8,26.0,30.07,NW,315,1.8,4.7,67,0.00,,,0.00,WUHU216HW,2013-02-25 22:17:00,
2013-02-25 17:22:00,35.8,26.0,30.07,WSW,248,0.0,2.5,67,0.00,,,0.00,WUHU216HW,2013-02-25 22:22:00,
2013-02-25 17:27:00,35.8,26.0,30.07,North,0,0.0,2.5,67,0.00,,,0.00,WUHU216HW,2013-02-25 22:27:00,
2013-02-25 17:32:00,35.6,25.8,30.08,NNW,338,0.4,1.1,67,0.00,,,0.00,WUHU216HW,2013-02-25 22:32:00,
2013-02-25 17:37:00,35.6,25.8,30.08,NNW,338,0.4,1.6,67,0.00,,,0.00,WUHU216HW,2013-02-25 22:37:00,
2013-02-25 17:42:00,35.4,25.6,30.08,WNW,293,0.9,1.6,67,0.00,,,0.00,WUHU216HW,2013-02-25 22:42:00,
2013-02-25 17:47:00,35.3,25.5,30.08,WNW,293,0.4,0.9,67,0.00,,,0.00,WUHU216HW,2013-02-25 22:47:00,
2013-02-25 17:52:00,35.1,25.3,30.08,WNW,293,0.0,1.1,67,0.00,,,0.00,WUHU216HW,2013-02-25 22:52:00,
2013-02-25 17:57:00,35.1,25.3,30.09,West,270,0.9,1.1,67,0.00,,,0.00,WUHU216HW,2013-02-25 22:57:00,
2013-02-25 18:02:00,34.9,25.1,30.09,West,270,0.0,1.1,67,0.00,,,0.00,WUHU216HW,2013-02-25 23:02:00,
2013-02-25 18:07:00,34.9,25.1,30.09,West,270,0.0,0.9,67,0.00,,,0.00,WUHU216HW,2013-02-25 23:07:00,
2013-02-25 18:12:00,34.7,24.9,30.09,West,270,0.0,0.7,67,0.00,,,0.00,WUHU216HW,2013-02-25 23:12:00,
2013-02-25 18:17:00,34.5,24.7,30.09,West,270,0.0,0.0,67,0.00,,,0.00,WUHU216HW,2013-02-25 23:17:00,
2013-02-25 18:22:00,34.4,24.6,30.09,NNW,338,0.0,0.4,67,0.00,,,0.00,WUHU216HW,2013-02-25 23:22:00,
2013-02-25 18:27:00,34.2,24.8,30.10,NNW,338,0.0,0.4,68,0.00,,,0.00,WUHU216HW,2013-02-25 23:27:00,
2013-02-25 18:32:00,34.0,24.6,30.10,NNW,338,0.4,1.3,68,0.00,,,0.00,WUHU216HW,2013-02-25 23:32:00,
2013-02-25 18:37:00,33.8,24.4,30.10,NNW,338,1.1,1.3,68,0.00,,,0.00,WUHU216HW,2013-02-25 23:37:00,
2013-02-25 18:42:00,33.6,24.2,30.10,ESE,113,0.0,1.3,68,0.00,,,0.00,WUHU216HW,2013-02-25 23:42:00,
2013-02-25 18:47:00,33.6,24.2,30.10,East,90,0.4,1.3,68,0.00,,,0.00,WUHU216HW,2013-02-25 23:47:00,
2013-02-25 18:52:00,33.5,24.1,30.10,NNE,23,0.4,0.7,68,0.00,,,0.00,WUHU216HW,2013-02-25 23:52:00,
2013-02-25 18:57:00,33.3,23.9,30.10,NE,45,0.4,0.7,68,0.00,,,0.00,WUHU216HW,2013-02-25 23:57:00,
2013-02-25 19:03:00,33.3,23.9,30.10,North,0,0.0,0.4,68,0.00,,,0.00,WUHU216HW,2013-02-26 00:03:00,
2013-02-25 19:08:00,32.9,23.9,30.10,NNE,23,0.0,0.4,69,0.00,,,0.00,WUHU216HW,2013-02-26 00:08:00,
2013-02-25 19:13:00,32.9,23.9,30.10,NNW,338,0.2,1.1,69,0.00,,,0.00,WUHU216HW,2013-02-26 00:13:00,
2013-02-25 19:18:00,32.7,23.7,30.11,NNW,338,0.0,1.1,69,0.00,,,0.00,WUHU216HW,2013-02-26 00:18:00,
2013-02-25 19:23:00,32.6,24.0,30.11,NNW,338,0.4,0.4,70,0.00,,,0.00,WUHU216HW,2013-02-26 00:23:00,
2013-02-25 19:28:00,32.2,23.2,30.12,NNW,338,0.2,0.4,69,0.00,,,0.00,WUHU216HW,2013-02-26 00:28:00,
2013-02-25 19:33:00,32.0,23.4,30.12,NNW,338,0.0,0.4,70,0.00,,,0.00,WUHU216HW,2013-02-26 00:33:00,
2013-02-25 19:38:00,31.8,23.2,30.12,NNW,338,0.0,0.4,70,0.00,,,0.00,WUHU216HW,2013-02-26 00:38:00,
2013-02-25 19:43:00,31.7,23.1,30.12,NW,315,0.2,0.7,70,0.00,,,0.00,WUHU216HW,2013-02-26 00:43:00,
2013-02-25 19:48:00,31.7,23.1,30.12,NW,315,0.0,0.7,70,0.00,,,0.00,WUHU216HW,2013-02-26 00:48:00,
2013-02-25 19:53:00,31.5,22.9,30.12,NNW,338,0.9,1.1,70,0.00,,,0.00,WUHU216HW,2013-02-26 00:53:00,
2013-02-25 19:59:00,31.5,22.9,30.12,ESE,113,0.7,1.1,70,0.00,,,0.00,WUHU216HW,2013-02-26 00:59:00,
2013-02-25 20:04:00,31.3,22.7,30.12,SE,135,0.9,1.3,70,0.00,,,0.00,WUHU216HW,2013-02-26 01:04:00,
2013-02-25 20:09:00,31.1,22.5,30.12,SE,135,0.0,1.3,70,0.00,,,0.00,WUHU216HW,2013-02-26 01:09:00,
2013-02-25 20:14:00,31.1,22.5,30.12,SE,135,0.0,0.9,70,0.00,,,0.00,WUHU216HW,2013-02-26 01:14:00,
2013-02-25 20:19:00,30.9,22.3,30.12,ENE,68,0.0,0.4,70,0.00,,,0.00,WUHU216HW,2013-02-26 01:19:00,
2013-02-25 20:24:00,30.8,22.6,30.12,ESE,113,0.4,0.7,71,0.00,,,0.00,WUHU216HW,2013-02-26 01:24:00,
2013-02-25 20:29:00,30.8,22.6,30.12,ESE,113,0.0,0.7,71,0.00,,,0.00,WUHU216HW,2013-02-26 01:29:00,
2013-02-25 20:34:00,30.4,22.2,30.12,East,90,0.0,0.4,71,0.00,,,0.00,WUHU216HW,2013-02-26 01:34:00,
2013-02-25 20:39:00,30.2,22.0,30.12,East,90,0.0,0.0,71,0.00,,,0.00,WUHU216HW,2013-02-26 01:39:00,
2013-02-25 20:44:00,30.2,22.0,30.13,East,90,0.0,0.0,71,0.00,,,0.00,WUHU216HW,2013-02-26 01:44:00,
2013-02-25 20:49:00,30.0,21.8,30.12,East,90,0.0,0.0,71,0.00,,,0.00,WUHU216HW,2013-02-26 01:49:00,
2013-02-25 20:55:00,30.0,22.1,30.12,ESE,113,0.0,0.0,72,0.00,,,0.00,WUHU216HW,2013-02-26 01:55:00,
2013-02-25 21:00:00,29.9,22.0,30.12,ESE,113,0.0,0.0,72,0.00,,,0.00,WUHU216HW,2013-02-26 02:00:00,
2013-02-25 21:05:00,29.9,22.0,30.12,ESE,113,0.0,0.0,72,0.00,,,0.00,WUHU216HW,2013-02-26 02:05:00,
2013-02-25 21:10:00,29.7,22.2,30.12,ESE,113,0.0,0.0,73,0.00,,,0.00,WUHU216HW,2013-02-26 02:10:00,
2013-02-25 21:15:00,29.7,22.2,30.13,ESE,113,0.0,0.0,73,0.00,,,0.00,WUHU216HW,2013-02-26 02:15:00,
2013-02-25 21:20:00,29.7,22.2,30.13,ESE,113,0.0,0.0,73,0.00,,,0.00,WUHU216HW,2013-02-26 02:20:00,
2013-02-25 21:25:00,29.9,22.3,30.13,ESE,113,0.0,0.0,73,0.00,,,0.00,WUHU216HW,2013-02-26 02:25:00,
2013-02-25 21:30:00,30.0,22.4,30.13,ESE,113,0.0,0.0,73,0.00,,,0.00,WUHU216HW,2013-02-26 02:30:00,
2013-02-25 21:35:00,30.0,22.4,30.13,ESE,113,0.0,0.0,73,0.00,,,0.00,WUHU216HW,2013-02-26 02:35:00,
2013-02-25 21:40:00,30.0,22.4,30.14,ESE,113,0.0,0.0,73,0.00,,,0.00,WUHU216HW,2013-02-26 02:40:00,
2013-02-25 21:45:00,30.0,22.4,30.14,ESE,113,0.0,0.0,73,0.00,,,0.00,WUHU216HW,2013-02-26 02:45:00,
2013-02-25 21:50:00,29.9,22.3,30.14,ESE,113,0.0,0.0,73,0.00,,,0.00,WUHU216HW,2013-02-26 02:50:00,
2013-02-25 21:55:00,29.9,22.7,30.13,ESE,113,0.0,0.0,74,0.00,,,0.00,WUHU216HW,2013-02-26 02:55:00,
2013-02-25 22:00:00,29.9,22.7,30.14,North,0,0.0,0.0,74,0.00,,,0.00,WUHU216HW,2013-02-26 03:00:00,
2013-02-25 22:05:00,29.9,22.7,30.14,NW,315,0.0,0.9,74,0.00,,,0.00,WUHU216HW,2013-02-26 03:05:00,
2013-02-25 22:10:00,29.9,22.7,30.13,NE,45,0.4,0.9,74,0.00,,,0.00,WUHU216HW,2013-02-26 03:10:00,
2013-02-25 22:15:00,29.9,23.0,30.13,NE,45,0.0,0.7,75,0.00,,,0.00,WUHU216HW,2013-02-26 03:15:00,
2013-02-25 22:21:00,29.9,23.0,30.13,NE,45,0.0,0.4,75,0.00,,,0.00,WUHU216HW,2013-02-26 03:21:00,
2013-02-25 22:26:00,29.9,23.0,30.14,NNW,338,0.0,0.0,75,0.00,,,0.00,WUHU216HW,2013-02-26 03:26:00,
2013-02-25 22:31:00,29.9,23.0,30.14,NNW,338,0.0,0.0,75,0.00,,,0.00,WUHU216HW,2013-02-26 03:31:00,
2013-02-25 22:36:00,29.9,23.0,30.13,NNW,338,0.0,0.0,75,0.00,,,0.00,WUHU216HW,2013-02-26 03:36:00,
2013-02-25 22:41:00,29.9,23.3,30.13,NNW,338,0.0,0.0,76,0.00,,,0.00,WUHU216HW,2013-02-26 03:41:00,
2013-02-25 22:46:00,30.0,23.4,30.14,East,90,0.4,0.7,76,0.00,,,0.00,WUHU216HW,2013-02-26 03:46:00,
2013-02-25 22:51:00,30.0,23.4,30.13,East,90,0.4,0.7,76,0.00,,,0.00,WUHU216HW,2013-02-26 03:51:00,
2013-02-25 22:56:00,29.9,23.3,30.13,ESE,113,1.1,1.1,76,0.00,,,0.00,WUHU216HW,2013-02-26 03:56:00,
2013-02-25 23:01:00,29.9,23.3,30.13,SE,135,0.0,1.6,76,0.00,,,0.00,WUHU216HW,2013-02-26 04:01:00,
2013-02-25 23:06:00,29.7,23.1,30.12,SE,135,0.0,1.6,76,0.00,,,0.00,WUHU216HW,2013-02-26 04:06:00,
2013-02-25 23:11:00,29.5,22.9,30.12,SE,135,0.0,0.0,76,0.00,,,0.00,WUHU216HW,2013-02-26 04:11:00,
2013-02-25 23:16:00,29.5,22.9,30.12,SE,135,0.0,0.0,76,0.00,,,0.00,WUHU216HW,2013-02-26 04:16:00,
2013-02-25 23:21:00,29.3,22.7,30.12,SE,135,0.0,0.0,76,0.00,,,0.00,WUHU216HW,2013-02-26 04:21:00,
2013-02-25 23:26:00,29.3,22.7,30.11,East,90,0.0,0.4,76,0.00,,,0.00,WUHU216HW,2013-02-26 04:26:00,
2013-02-25 23:31:00,29.1,22.5,30.11,ENE,68,0.0,0.4,76,0.00,,,0.00,WUHU216HW,2013-02-26 04:31:00,
2013-02-25 23:36:00,29.1,22.5,30.12,ENE,68,0.0,0.0,76,0.00,,,0.00,WUHU216HW,2013-02-26 04:36:00,
2013-02-25 23:41:00,29.0,22.4,30.12,ESE,113,0.0,0.7,76,0.00,,,0.00,WUHU216HW,2013-02-26 04:41:00,
2013-02-25 23:46:00,28.8,22.2,30.12,ESE,113,0.0,0.7,76,0.00,,,0.00,WUHU216HW,2013-02-26 04:46:00,
2013-02-25 23:51:00,28.8,22.2,30.12,ESE,113,0.0,0.0,76,0.00,,,0.00,WUHU216HW,2013-02-26 04:51:00,
2013-02-25 23:56:00,28.8,22.5,30.12,ESE,113,0.0,0.0,77,0.00,,,0.00,WUHU216HW,2013-02-26 04:56:00,